Location: Dehesa de la Cepeda
(40.6574°N, 4.3013°W)
Time: 01:43:21
(UTC+00:00)

Courier 1B - Pass Details

Date: 06 August 2021
Orbit: 963 x 1209 km, 28.3° (Epoch: 17 September)

Event Time Altitude Azimuth Distance (km) Brightness Sun altitude
Rises 16:02:39 0° 216° (SW) 3,987 11.2 37.1°
Reaches altitude 10° 16:06:21 10° 199° (SSW) 3,066 10.6 36.4°
Maximum altitude 16:11:21 19° 158° (SSE) 2,500 9.7 35.5°
Drops below altitude 10° 16:16:27 10° 116° (ESE) 3,135 9.8 34.5°
Sets 16:20:17 0° 100° (E) 4,108 10.3 33.8°
